Flag for New Zealand Weather past 2 weeks in Auckland, New Zealand

Now
73 °F

Partly sunny.


Feels Like: 75 °F
Forecast: 58 / 70 °F
Wind: 14 mph from Southwest

Location: Auckland Airport

Current Time: Dec 21, 2014 at 5:12:34 PM

Latest Report: Dec 21, 2014 at 4:30 PM


Visibility: N/A

Pressure: 29.95 "Hg

Humidity: 74%

Dew point: 64 °F

Location of AucklandLocation

Historic Weather in Auckland — Graph

°F

Auckland temperature yesterday

Maximum temperature yesterday: 72 °F (at 11:00 AM)
Minimum temperature yesterday: 63 °F (at 1:30 AM)
Average temperature yesterday: 67 °F

Past Weeks' High & Low Weather Summary

 TemperatureHumidityPressure
High77 °F (Dec 19, 1:30 PM)100% (Dec 7, 11:00 PM)30.24 "Hg (Dec 7, 11:00 PM)
Low57 °F (Dec 13, 11:30 PM)57% (Dec 10, 12:30 PM)29.68 "Hg (Dec 14, 5:00 PM)
Average65 °F84%29.95 "Hg
* Reported Dec 6 3:00 PM — Dec 21 3:30 PM, Auckland, Weather by CustomWeather, © 2014

Note: Actual official high and low records may vary slightly from our data, if they occured in-between our weather recording intervals... More about our weather records

Advertising

Auckland weather history for previous 24 hours

 ConditionsComfort  
Time TempWeatherWind HumidityBarometerVisibility
3:30 PM
Dec 21
73 °FPassing clouds.10 mph78%29.95 "HgN/A
3:00 PM73 °FMild.7 mph74%29.95 "HgN/A
2:30 PM72 °FMild.9 mph78%29.95 "HgN/A
2:00 PM72 °FPassing clouds.10 mph78%29.95 "HgN/A
1:30 PM72 °FMild.12 mph83%29.95 "HgN/A
1:00 PM72 °FMild.10 mph78%29.95 "HgN/A
12:30 PM72 °FMild.12 mph73%29.95 "HgN/A
12:00 PM70 °FMild.13 mph78%29.95 "HgN/A
11:30 AM72 °FMild.13 mph78%29.95 "HgN/A
11:00 AM70 °FPassing clouds.13 mph78%29.95 "HgN/A
10:30 AM70 °FPassing clouds.8 mph83%29.95 "HgN/A
10:00 AM70 °FMild.8 mph83%29.95 "HgN/A
9:30 AM68 °FMild.6 mph83%29.95 "HgN/A
9:00 AM68 °FBroken clouds.6 mph88%29.95 "HgN/A
8:30 AM66 °FPartly sunny.3 mph94%29.92 "HgN/A
8:00 AM64 °FSprinkles. More clouds than sun.9 mph100%29.92 "HgN/A
7:30 AM66 °FBroken clouds.5 mph94%29.92 "HgN/A
7:00 AM64 °FSprinkles. Mostly cloudy.3 mph94%29.92 "HgN/A
6:30 AM64 °FSprinkles. Broken clouds.5 mph100%29.89 "HgN/A
6:00 AM64 °FDrizzle. Partly sunny.2 mph100%29.89 "HgN/A
5:30 AM64 °FPassing clouds.No wind100%29.89 "HgN/A
5:00 AM64 °FPassing clouds.2 mph100%29.86 "HgN/A
4:30 AM64 °FPassing clouds.3 mph100%29.86 "HgN/A
4:00 AM64 °FSprinkles. Partly cloudy.3 mph100%29.86 "HgN/A
3:30 AM66 °FLight rain. Passing clouds.2 mph94%29.89 "HgN/A
3:00 AM66 °FSprinkles. Passing clouds.2 mph94%29.89 "HgN/A
2:30 AM66 °FPassing clouds.3 mph94%29.89 "HgN/A
2:00 AM66 °FLight rain. Overcast.3 mph94%29.89 "HgN/A
1:30 AM66 °FSprinkles. Overcast.8 mph100%29.89 "HgN/A
1:00 AM66 °FSprinkles. Passing clouds.8 mph100%29.92 "HgN/A
12:30 AM66 °FSprinkles. Mostly cloudy.5 mph100%29.92 "HgN/A
12:00 AM66 °FSprinkles. Passing clouds.7 mph100%29.92 "HgN/A
11:30 PM
Dec 20
66 °FMostly cloudy.7 mph100%29.92 "HgN/A
11:00 PM66 °FPassing clouds.7 mph100%29.92 "HgN/A
10:30 PM66 °FScattered showers. Overcast.6 mph100%29.92 "HgN/A
10:00 PM68 °FLight rain. Passing clouds.5 mph94%29.89 "HgN/A
9:30 PM68 °FRain. Partly cloudy.7 mph94%29.89 "Hg4 mi
9:00 PM68 °FRain. Passing clouds.14 mph100%29.89 "Hg3 mi
8:30 PM68 °FLow clouds.14 mph100%29.86 "HgN/A
8:00 PM68 °FLight rain. Low clouds.17 mph100%29.86 "HgN/A
7:30 PM68 °FLight rain. Partly sunny.20 mph100%29.86 "HgN/A
7:00 PM68 °FLight rain. Partly sunny.21 mph100%29.86 "Hg6 mi
6:30 PM68 °FSprinkles. Low clouds.18 mph100%29.86 "HgN/A
6:00 PM68 °FLow clouds.18 mph100%29.89 "HgN/A
5:30 PM70 °FSprinkles. Partly sunny.16 mph94%29.89 "HgN/A
5:00 PM68 °FSprinkles. Low clouds.17 mph100%29.92 "HgN/A
Weather by CustomWeather, © 2014

See weather overviewHow to use our weather pages